Location: Bergnershof
(48.9468°N, 10.9431°E)
Time: 08:22:24
(UTC+00:00)

Cosmos 192 - Visible Passes

Search period start: 21 June 2021 00:00
Search period end: 01 July 2021 00:00
Orbit: 702 x 712 km, 74.0° (Epoch: 20 June)

Date Brightness Start Highest point End Pass type
(mag) Time Alt. Az. Time Alt. Az. Time Alt. Az.
21 Jun 6.8 00:15:54 10° W 00:18:40 15° NW 00:21:27 10° N visible
21 Jun 4.7 21:38:59 22° SSE 21:41:51 46° ESE 21:46:33 10° NNE visible
21 Jun 6.1 23:18:33 10° WSW 23:22:48 28° NW 23:27:03 10° N visible
22 Jun 5.8 20:44:07 13° SE 20:46:56 20° E 20:50:28 10° NE visible
22 Jun 4.8 22:23:03 14° SW 22:27:14 60° WNW 22:32:07 10° NNE visible
23 Jun 7.0 00:07:05 10° WNW 00:09:04 12° NW 00:11:05 10° NNW visible
23 Jun 4.4 21:28:06 16° S 21:31:57 60° ESE 21:36:48 10° NNE visible
23 Jun 6.4 23:09:11 10° WSW 23:13:06 23° NW 23:17:01 10° N visible
24 Jun 5.5 20:33:04 11° SSE 20:36:57 26° E 20:40:58 10° NE visible
24 Jun 5.2 22:12:41 10° SW 22:17:26 47° WNW 22:22:12 10° NNE visible
24 Jun 7.4 23:59:07 10° NW 23:59:30 10° NW 23:59:52 10° NW visible
25 Jun 4.3 21:17:09 10° SSW 21:22:05 77° ESE 21:27:00 10° NNE visible
25 Jun 6.8 22:59:55 10° W 23:03:26 19° NW 23:06:57 10° N visible
26 Jun 5.1 20:22:38 10° SSE 20:27:00 33° ESE 20:31:22 10° NE visible
26 Jun 5.7 22:03:06 10° SW 22:07:40 37° WNW 22:12:16 10° N visible
27 Jun 4.4 21:07:18 10° SSW 21:12:13 83° WNW 21:17:11 10° NNE visible
27 Jun 7.0 22:50:49 10° W 22:53:47 16° NW 22:56:47 10° N visible
28 Jun 4.8 20:12:27 10° S 20:17:04 42° ESE 20:21:42 10° NE visible
28 Jun 6.2 21:53:36 10° WSW 21:57:57 30° NW 22:02:18 10° N visible
29 Jun 4.8 20:57:31 10° SSW 21:02:24 65° WNW 21:07:19 10° NNE visible
29 Jun 7.2 22:41:52 10° WNW 22:44:10 13° NW 22:46:29 10° NNW visible
30 Jun 4.5 20:02:22 10° S 20:07:09 54° ESE 20:11:57 10° NNE visible
30 Jun 6.6 21:44:12 10° WSW 21:48:14 25° NW 21:52:17 10° N visible
